User: anonymous   Login
Location: Unspecified
(0.0000°N, 0.0000°E)
Time: 15:53:21
(UTC+01:00)
Language:

Cosmos 540 Rocket - Orbit

View from above orbital plane
View from above orbital plane
View from above satellite
View from above satellite

Ground track
Ground track

The orbit data is extracted from the following two-line orbital elements,

1 06324U 72104B   17054.23506207  .00000070  00000-0  28574-4 0  9998
2 06324  74.0782 317.1457 0008336 131.7412 228.4459 14.43350008319131
Epoch (UTC): 23 February 2017 05:38:29
Eccentricity: 0.0008336
inclination: 74.0782°
perigee height: 741 km
apogee height: 753 km
right ascension of ascending node: 317.1457°
argument of perigee: 131.7412°
revolutions per day: 14.43350008
mean anomaly at epoch: 228.4459°
orbit number at epoch: 31913

The dashed part of the orbit path shows where the satellite is in the earth's shadow,  

DLR